TimeEST,TemperatureF,Dew PointF,Humidity,Sea Level PressureIn,VisibilityMPH,Wind Direction,Wind SpeedMPH,Gust SpeedMPH,PrecipitationIn,Events,Conditions,WindDirDegrees,DateUTC
12:15 AM,44.6,44.6,100,29.76,4.0,SSE,6.9,-,0.03,Rain,Rain,160,2011-11-29 05:15:00
12:35 AM,44.6,42.8,93,29.75,4.0,SSE,3.5,-,0.09,Rain,Rain,160,2011-11-29 05:35:00
1:15 AM,44.6,42.8,93,29.75,4.0,SSE,5.8,-,0.03,Rain,Heavy Rain,160,2011-11-29 06:15:00
1:35 AM,42.8,41.0,93,29.73,2.5,SSE,3.5,-,0.11,,Overcast,160,2011-11-29 06:35:00
1:55 AM,42.8,41.0,93,29.72,10.0,SSE,4.6,-,0.15,Rain,Light Rain,150,2011-11-29 06:55:00
2:15 AM,41.0,41.0,100,29.70,10.0,SSE,3.5,-,N/A,Rain,Light Rain,150,2011-11-29 07:15:00
2:55 AM,41.0,39.2,93,29.70,10.0,SSE,6.9,-,N/A,,Overcast,160,2011-11-29 07:55:00
3:15 AM,41.0,37.4,87,29.71,10.0,South,10.4,16.1,N/A,,Overcast,170,2011-11-29 08:15:00
3:35 AM,39.2,37.4,93,29.71,10.0,South,4.6,-,N/A,,Overcast,170,2011-11-29 08:35:00
3:55 AM,37.4,35.6,93,29.71,10.0,South,4.6,-,N/A,,Mostly Cloudy,170,2011-11-29 08:55:00
4:15 AM,35.6,33.8,93,29.70,10.0,Calm,Calm,-,N/A,,Clear,0,2011-11-29 09:15:00
4:35 AM,35.6,33.8,93,29.70,7.0,SSE,3.5,-,N/A,,Clear,160,2011-11-29 09:35:00
4:55 AM,33.8,33.8,100,29.70,7.0,Calm,Calm,-,N/A,,Clear,0,2011-11-29 09:55:00
5:15 AM,33.8,33.8,100,29.69,2.5,South,3.5,-,N/A,,Scattered Clouds,170,2011-11-29 10:15:00
5:35 AM,35.6,33.8,93,29.70,4.0,South,4.6,-,N/A,,Overcast,180,2011-11-29 10:35:00
5:55 AM,35.6,33.8,93,29.69,10.0,South,6.9,-,N/A,,Overcast,180,2011-11-29 10:55:00
6:15 AM,35.6,33.8,93,29.70,10.0,South,6.9,-,N/A,,Overcast,180,2011-11-29 11:15:00
6:35 AM,35.6,33.8,93,29.71,10.0,South,4.6,-,N/A,,Overcast,170,2011-11-29 11:35:00
6:55 AM,35.6,32.0,87,29.72,10.0,South,5.8,16.1,N/A,,Light Drizzle,170,2011-11-29 11:55:00
7:35 AM,33.8,32.0,93,29.73,10.0,South,4.6,-,0.01,,Overcast,190,2011-11-29 12:35:00
7:55 AM,33.8,32.0,93,29.72,10.0,South,4.6,-,0.01,,Overcast,170,2011-11-29 12:55:00
8:15 AM,33.8,32.0,93,29.73,10.0,South,5.8,-,N/A,,Overcast,190,2011-11-29 13:15:00
8:35 AM,33.8,32.0,93,29.74,10.0,SSE,4.6,-,N/A,,Overcast,160,2011-11-29 13:35:00
8:55 AM,33.8,32.0,93,29.75,10.0,SSE,4.6,-,N/A,,Mostly Cloudy,160,2011-11-29 13:55:00
9:15 AM,35.6,32.0,87,29.76,10.0,South,3.5,-,N/A,,Overcast,180,2011-11-29 14:15:00
9:35 AM,35.6,32.0,87,29.74,10.0,SSE,5.8,-,N/A,,Mostly Cloudy,160,2011-11-29 14:35:00
9:55 AM,33.8,30.2,87,29.72,10.0,South,3.5,-,N/A,,Scattered Clouds,170,2011-11-29 14:55:00
10:15 AM,35.6,32.0,87,29.73,10.0,South,5.8,-,N/A,,Scattered Clouds,170,2011-11-29 15:15:00
10:35 AM,35.6,32.0,87,29.73,10.0,SSE,3.5,-,N/A,,Scattered Clouds,160,2011-11-29 15:35:00
10:55 AM,35.6,32.0,87,29.73,10.0,SSE,3.5,-,N/A,,Scattered Clouds,160,2011-11-29 15:55:00
11:15 AM,35.6,32.0,87,29.73,10.0,SSE,3.5,-,N/A,,Overcast,160,2011-11-29 16:15:00
11:35 AM,33.8,32.0,93,29.73,10.0,SSE,5.8,-,N/A,,Overcast,150,2011-11-29 16:35:00
11:55 AM,35.6,32.0,87,29.71,10.0,SSE,4.6,-,N/A,,Overcast,150,2011-11-29 16:55:00
12:15 PM,33.8,32.0,93,29.69,10.0,SE,6.9,-,N/A,,Overcast,140,2011-11-29 17:15:00
12:35 PM,33.8,32.0,93,29.70,10.0,SSE,6.9,-,N/A,,Overcast,160,2011-11-29 17:35:00
12:55 PM,33.8,30.2,87,29.69,10.0,SSE,5.8,-,N/A,,Overcast,150,2011-11-29 17:55:00
1:15 PM,33.8,30.2,87,29.68,10.0,South,3.5,-,N/A,,Overcast,170,2011-11-29 18:15:00
1:35 PM,32.0,30.2,93,29.68,10.0,South,4.6,-,N/A,,Overcast,170,2011-11-29 18:35:00
1:55 PM,33.8,30.2,87,29.68,10.0,SSE,5.8,-,N/A,,Overcast,160,2011-11-29 18:55:00
2:15 PM,32.0,30.2,93,29.67,5.0,SSE,4.6,-,N/A,Snow,Light Snow,160,2011-11-29 19:15:00
2:55 PM,32.0,32.0,100,29.67,1.0,Calm,Calm,-,N/A,Snow,Light Snow,0,2011-11-29 19:55:00
3:15 PM,32.0,32.0,100,29.68,1.2,South,4.6,-,N/A,Snow,Light Snow,170,2011-11-29 20:15:00
3:35 PM,32.0,32.0,100,29.68,1.5,SSE,3.5,-,N/A,Snow,Light Snow,160,2011-11-29 20:35:00
3:55 PM,32.0,32.0,100,29.69,1.0,SSE,3.5,-,N/A,Snow,Light Snow,160,2011-11-29 20:55:00
4:15 PM,32.0,32.0,100,29.69,1.0,Calm,Calm,-,N/A,Snow,Light Snow,0,2011-11-29 21:15:00
4:35 PM,32.0,32.0,100,29.70,1.0,Calm,Calm,-,N/A,Snow,Light Snow,0,2011-11-29 21:35:00
4:55 PM,32.0,32.0,100,29.70,1.2,Calm,Calm,-,N/A,Snow,Light Snow,0,2011-11-29 21:55:00
5:15 PM,32.0,32.0,100,29.70,3.0,Calm,Calm,-,N/A,Snow,Light Snow,0,2011-11-29 22:15:00
5:35 PM,32.0,32.0,100,29.70,5.0,Calm,Calm,-,N/A,Snow,Light Snow,0,2011-11-29 22:35:00
6:15 PM,32.0,30.2,93,29.71,1.5,Calm,Calm,-,N/A,Snow,Light Snow,0,2011-11-29 23:15:00
6:35 PM,32.0,32.0,100,29.72,5.0,West,10.4,-,N/A,Snow,Light Snow,280,2011-11-29 23:35:00
6:55 PM,32.0,28.4,87,29.73,10.0,WNW,11.5,-,N/A,,Overcast,290,2011-11-29 23:55:00
7:15 PM,32.0,28.4,87,29.73,10.0,West,12.7,18.4,N/A,Snow,Light Snow,280,2011-11-30 00:15:00
7:35 PM,32.0,28.4,87,29.74,7.0,West,9.2,17.3,N/A,Snow,Light Snow,280,2011-11-30 00:35:00
8:15 PM,32.0,28.4,87,29.74,5.0,West,17.3,26.5,N/A,Snow,Light Snow,280,2011-11-30 01:15:00
8:35 PM,32.0,28.4,87,29.74,10.0,West,13.8,21.9,N/A,,Overcast,280,2011-11-30 01:35:00
8:55 PM,32.0,26.6,80,29.74,10.0,West,17.3,25.3,N/A,,Mostly Cloudy,280,2011-11-30 01:55:00
9:15 PM,32.0,28.4,87,29.75,7.0,WNW,17.3,27.6,N/A,,Overcast,290,2011-11-30 02:15:00
9:35 PM,32.0,26.6,80,29.75,10.0,West,9.2,16.1,N/A,,Overcast,280,2011-11-30 02:35:00
9:55 PM,32.0,26.6,80,29.73,10.0,West,5.8,19.6,N/A,,Overcast,270,2011-11-30 02:55:00
10:15 PM,32.0,26.6,80,29.73,10.0,West,8.1,-,N/A,,Overcast,280,2011-11-30 03:15:00
10:55 PM,32.0,26.6,80,29.73,10.0,WNW,5.8,18.4,N/A,,Overcast,290,2011-11-30 03:55:00
11:15 PM,32.0,26.6,80,29.72,10.0,WNW,17.3,29.9,N/A,,Mostly Cloudy,290,2011-11-30 04:15:00
11:35 PM,32.0,26.6,80,29.73,10.0,WNW,15.0,21.9,N/A,,Mostly Cloudy,290,2011-11-30 04:35:00
11:55 PM,32.0,26.6,80,29.74,7.0,WNW,9.2,21.9,N/A,,Overcast,290,2011-11-30 04:55:00